Location: Key Biscayne
(25.6930°N, 80.1630°W)
Time: 01:33:09
(UTC-04:00)

CZ-2D R/B - Visible Passes

Search period start: 26 September 2017 00:00
Search period end: 06 October 2017 00:00
Orbit: 523 x 541 km, 97.5° (Epoch: 25 September)

Date Brightness Start Highest point End Pass type
(mag) Time Alt. Az. Time Alt. Az. Time Alt. Az.
26 Sep 5.0 21:04:04 25° NNW 21:04:04 25° NNW 21:05:43 10° NNW visible
27 Sep 5.0 20:54:25 23° N 20:54:25 23° N 20:55:57 10° N visible
28 Sep 5.1 20:44:47 20° NNE 20:44:47 20° NNE 20:46:07 10° N visible
29 Sep 5.2 20:35:09 17° NNE 20:35:09 17° NNE 20:36:12 10° N visible
30 Sep 5.4 20:25:31 14° NNE 20:25:31 14° NNE 20:26:11 10° NNE visible
01 Oct 5.6 20:15:52 11° NNE 20:15:52 11° NNE 20:16:02 10° NNE visible
